![]() |
EMODnet Physics ERDDAP
Easier access to scientific data |
log in|
Brought to you by EMODnet Physics |
| Dataset Title: | NDBC - Collection of dew point temperature (DEWT) TimeSeries - IN SITU MultiPointTimeSeriesObservation
|
| Institution: | NDBC (Dataset ID: TS_DEWT_NDBC) |
| Information: | Summary
| License
| FGDC
| ISO 19115
| Metadata
| Background
| Subset
| Data Access Form
| Make a graph
|
| Name | Last modified | Size | Description | |
|---|---|---|---|---|
| Parent Directory | - | - | ||
| 41001_TS_DEWT_011977.nc | 26-Oct-2024 08:05 | 1107208 | ||
| 41001_TS_DEWT_011979.nc | 26-Oct-2024 08:06 | 1020062 | ||
| 41001_TS_DEWT_011980.nc | 26-Oct-2024 08:06 | 1016163 | ||
| 41001_TS_DEWT_011981.nc | 26-Oct-2024 08:06 | 1031242 | ||
| 41001_TS_DEWT_011982.nc | 26-Oct-2024 08:06 | 627999 | ||
| 41001_TS_DEWT_011983.nc | 26-Oct-2024 08:06 | 1012717 | ||
| 41001_TS_DEWT_011984.nc | 26-Oct-2024 08:06 | 1032771 | ||
| 41001_TS_DEWT_011985.nc | 26-Oct-2024 08:06 | 1036704 | ||
| 41001_TS_DEWT_011986.nc | 26-Oct-2024 08:06 | 999659 | ||
| 41001_TS_DEWT_011987.nc | 26-Oct-2024 08:06 | 1109562 | ||
| 41001_TS_DEWT_011988.nc | 26-Oct-2024 08:06 | 426329 | ||
| 41001_TS_DEWT_011989.nc | 26-Oct-2024 08:06 | 424214 | ||
| 41001_TS_DEWT_011990.nc | 26-Oct-2024 08:06 | 425816 | ||
| 41001_TS_DEWT_011991.nc | 26-Oct-2024 08:06 | 424875 | ||
| 41001_TS_DEWT_011992.nc | 26-Oct-2024 08:06 | 429581 | ||
| 41001_TS_DEWT_011994.nc | 26-Oct-2024 08:06 | 429594 | ||
| 41001_TS_DEWT_011995.nc | 26-Oct-2024 08:06 | 429589 | ||
| 41001_TS_DEWT_011996.nc | 26-Oct-2024 08:06 | 427710 | ||
| 41001_TS_DEWT_011997.nc | 26-Oct-2024 08:07 | 429594 | ||
| 41001_TS_DEWT_011998.nc | 26-Oct-2024 08:07 | 429682 | ||
| 41001_TS_DEWT_011999.nc | 26-Oct-2024 08:07 | 429604 | ||
| 41001_TS_DEWT_012001.nc | 26-Oct-2024 08:07 | 429612 | ||
| 41001_TS_DEWT_012002.nc | 26-Oct-2024 08:07 | 421404 | ||
| 41001_TS_DEWT_012004.nc | 26-Oct-2024 08:07 | 429606 | ||
| 41001_TS_DEWT_012005.nc | 26-Oct-2024 08:07 | 429578 | ||
| 41001_TS_DEWT_012006.nc | 26-Oct-2024 08:07 | 429603 | ||
| 41001_TS_DEWT_012007.nc | 26-Oct-2024 08:07 | 429601 | ||
| 41001_TS_DEWT_012010.nc | 26-Oct-2024 08:07 | 429607 | ||
| 41001_TS_DEWT_012011.nc | 26-Oct-2024 08:08 | 429601 | ||
| 41001_TS_DEWT_012012.nc | 26-Oct-2024 08:08 | 429599 | ||
| 41001_TS_DEWT_012013.nc | 26-Oct-2024 08:08 | 429606 | ||
| 41001_TS_DEWT_012016.nc | 26-Oct-2024 08:08 | 429601 | ||
| 41001_TS_DEWT_012021.nc | 26-Oct-2024 08:08 | 429606 | ||
| 41001_TS_DEWT_012023.nc | 26-Oct-2024 08:08 | 450586 | ||
| 41001_TS_DEWT_021977.nc | 26-Oct-2024 08:08 | 451766 | ||
| 41001_TS_DEWT_021980.nc | 26-Oct-2024 08:08 | 429827 | ||
| 41001_TS_DEWT_021981.nc | 26-Oct-2024 08:08 | 447849 | ||
| 41001_TS_DEWT_021982.nc | 26-Oct-2024 08:08 | 450617 | ||
| 41001_TS_DEWT_021983.nc | 26-Oct-2024 08:08 | 450424 | ||
| 41001_TS_DEWT_021984.nc | 26-Oct-2024 08:08 | 451455 | ||
| 41001_TS_DEWT_021986.nc | 26-Oct-2024 08:08 | 429826 | ||
| 41001_TS_DEWT_021987.nc | 26-Oct-2024 08:08 | 1265765 | ||
| 41001_TS_DEWT_021988.nc | 26-Oct-2024 08:08 | 436689 | ||
| 41001_TS_DEWT_021989.nc | 26-Oct-2024 08:09 | 1144087 | ||
| 41001_TS_DEWT_021990.nc | 26-Oct-2024 08:09 | 425570 | ||
| 41001_TS_DEWT_021991.nc | 26-Oct-2024 08:09 | 425221 | ||
| 41001_TS_DEWT_021992.nc | 26-Oct-2024 08:09 | 424675 | ||
| 41001_TS_DEWT_021994.nc | 26-Oct-2024 08:09 | 428597 | ||
| 41001_TS_DEWT_021995.nc | 26-Oct-2024 08:09 | 428594 | ||
| 41001_TS_DEWT_021996.nc | 26-Oct-2024 08:09 | 428930 | ||
| 41001_TS_DEWT_021997.nc | 26-Oct-2024 08:09 | 428591 | ||
| 41001_TS_DEWT_021998.nc | 26-Oct-2024 08:09 | 428601 | ||
| 41001_TS_DEWT_021999.nc | 26-Oct-2024 08:09 | 428951 | ||
| 41001_TS_DEWT_022001.nc | 26-Oct-2024 08:09 | 428606 | ||
| 41001_TS_DEWT_022002.nc | 26-Oct-2024 08:09 | 428606 | ||
| 41001_TS_DEWT_022003.nc | 26-Oct-2024 08:10 | 421176 | ||
| 41001_TS_DEWT_022004.nc | 26-Oct-2024 08:10 | 428912 | ||
| 41001_TS_DEWT_022005.nc | 26-Oct-2024 08:10 | 428467 | ||
| 41001_TS_DEWT_022006.nc | 26-Oct-2024 08:10 | 428547 | ||
| 41001_TS_DEWT_022007.nc | 26-Oct-2024 08:10 | 428950 | ||
| 41001_TS_DEWT_022010.nc | 26-Oct-2024 08:10 | 428603 | ||
| 41001_TS_DEWT_022011.nc | 26-Oct-2024 08:10 | 428605 | ||
| 41001_TS_DEWT_022012.nc | 26-Oct-2024 08:10 | 428603 | ||
| 41001_TS_DEWT_022013.nc | 26-Oct-2024 08:10 | 428606 | ||
| 41001_TS_DEWT_022016.nc | 26-Oct-2024 08:10 | 428603 | ||
| 41001_TS_DEWT_022023.nc | 26-Oct-2024 08:10 | 427993 | ||
| 41001_TS_DEWT_031977.nc | 26-Oct-2024 08:10 | 447382 | ||
| 41001_TS_DEWT_031980.nc | 26-Oct-2024 08:10 | 448588 | ||
| 41001_TS_DEWT_031981.nc | 26-Oct-2024 08:10 | 428799 | ||
| 41001_TS_DEWT_031982.nc | 26-Oct-2024 08:11 | 447971 | ||
| 41001_TS_DEWT_031983.nc | 26-Oct-2024 08:11 | 436240 | ||
| 41001_TS_DEWT_031984.nc | 26-Oct-2024 08:11 | 447863 | ||
| 41001_TS_DEWT_031985.nc | 26-Oct-2024 08:11 | 448085 | ||
| 41001_TS_DEWT_031986.nc | 26-Oct-2024 08:11 | 428794 | ||
| 41001_TS_DEWT_031987.nc | 26-Oct-2024 08:11 | 1105868 | ||
| 41001_TS_DEWT_031988.nc | 26-Oct-2024 08:11 | 918087 | ||
| 41001_TS_DEWT_031989.nc | 26-Oct-2024 08:11 | 426221 | ||
| 41001_TS_DEWT_031990.nc | 26-Oct-2024 08:11 | 425871 | ||
| 41001_TS_DEWT_031992.nc | 26-Oct-2024 08:11 | 425232 | ||
| 41001_TS_DEWT_031993.nc | 26-Oct-2024 08:11 | 429586 | ||
| 41001_TS_DEWT_031994.nc | 26-Oct-2024 08:11 | 429596 | ||
| 41001_TS_DEWT_031995.nc | 26-Oct-2024 08:11 | 429596 | ||
| 41001_TS_DEWT_031996.nc | 26-Oct-2024 08:11 | 419971 | ||
| 41001_TS_DEWT_031997.nc | 26-Oct-2024 08:12 | 428132 | ||
| 41001_TS_DEWT_031998.nc | 26-Oct-2024 08:12 | 429609 | ||
| 41001_TS_DEWT_031999.nc | 26-Oct-2024 08:12 | 429601 | ||
| 41001_TS_DEWT_032001.nc | 26-Oct-2024 08:12 | 429599 | ||
| 41001_TS_DEWT_032002.nc | 26-Oct-2024 08:12 | 429593 | ||
| 41001_TS_DEWT_032003.nc | 26-Oct-2024 08:12 | 429587 | ||
| 41001_TS_DEWT_032004.nc | 26-Oct-2024 08:12 | 420868 | ||
| 41001_TS_DEWT_032005.nc | 26-Oct-2024 08:12 | 429612 | ||
| 41001_TS_DEWT_032006.nc | 26-Oct-2024 08:12 | 419532 | ||
| 41001_TS_DEWT_032007.nc | 26-Oct-2024 08:12 | 422605 | ||
| 41001_TS_DEWT_032010.nc | 26-Oct-2024 08:12 | 429613 | ||
| 41001_TS_DEWT_032011.nc | 26-Oct-2024 08:12 | 429600 | ||
| 41001_TS_DEWT_032012.nc | 26-Oct-2024 08:12 | 429601 | ||
| 41001_TS_DEWT_032013.nc | 26-Oct-2024 08:12 | 429601 | ||
| 41001_TS_DEWT_032016.nc | 26-Oct-2024 08:12 | 429601 | ||
| 41001_TS_DEWT_032022.nc | 26-Oct-2024 08:12 | 450050 | ||
| 41001_TS_DEWT_032023.nc | 26-Oct-2024 08:12 | 450866 | ||
| 41001_TS_DEWT_041977.nc | 26-Oct-2024 08:12 | 431218 | ||
| 41001_TS_DEWT_041978.nc | 26-Oct-2024 08:13 | 429822 | ||
| 41001_TS_DEWT_041980.nc | 26-Oct-2024 08:13 | 451096 | ||
| 41001_TS_DEWT_041981.nc | 26-Oct-2024 08:13 | 429803 | ||
| 41001_TS_DEWT_041982.nc | 26-Oct-2024 08:13 | 450429 | ||
| 41001_TS_DEWT_041983.nc | 26-Oct-2024 08:13 | 450224 | ||
| 41001_TS_DEWT_041984.nc | 26-Oct-2024 08:13 | 429818 | ||
| 41001_TS_DEWT_041985.nc | 26-Oct-2024 08:13 | 1267859 | ||
| 41001_TS_DEWT_041987.nc | 26-Oct-2024 08:13 | 993773 | ||
| 41001_TS_DEWT_041988.nc | 26-Oct-2024 08:13 | 1144184 | ||
| 41001_TS_DEWT_041989.nc | 26-Oct-2024 08:13 | 426092 | ||
| 41001_TS_DEWT_041990.nc | 26-Oct-2024 08:13 | 422520 | ||
| 41001_TS_DEWT_041991.nc | 26-Oct-2024 08:13 | 425594 | ||
| 41001_TS_DEWT_041992.nc | 26-Oct-2024 08:13 | 424926 | ||
| 41001_TS_DEWT_041993.nc | 26-Oct-2024 08:13 | 429252 | ||
| 41001_TS_DEWT_041994.nc | 26-Oct-2024 08:13 | 429185 | ||
| 41001_TS_DEWT_041996.nc | 26-Oct-2024 08:14 | 429266 | ||
| 41001_TS_DEWT_041997.nc | 26-Oct-2024 08:14 | 426079 | ||
| 41001_TS_DEWT_041998.nc | 26-Oct-2024 08:14 | 429273 | ||
| 41001_TS_DEWT_041999.nc | 26-Oct-2024 08:14 | 421930 | ||
| 41001_TS_DEWT_042001.nc | 26-Oct-2024 08:14 | 429277 | ||
| 41001_TS_DEWT_042002.nc | 26-Oct-2024 08:14 | 429234 | ||
| 41001_TS_DEWT_042003.nc | 26-Oct-2024 08:14 | 419664 | ||
| 41001_TS_DEWT_042004.nc | 26-Oct-2024 08:14 | 429280 | ||
| 41001_TS_DEWT_042006.nc | 26-Oct-2024 08:14 | 429271 | ||
| 41001_TS_DEWT_042007.nc | 26-Oct-2024 08:14 | 429279 | ||
| 41001_TS_DEWT_042010.nc | 26-Oct-2024 08:14 | 429273 | ||
| 41001_TS_DEWT_042011.nc | 26-Oct-2024 08:14 | 429275 | ||
| 41001_TS_DEWT_042012.nc | 26-Oct-2024 08:14 | 429284 | ||
| 41001_TS_DEWT_042013.nc | 26-Oct-2024 08:14 | 429279 | ||
| 41001_TS_DEWT_042016.nc | 26-Oct-2024 08:14 | 429278 | ||
| 41001_TS_DEWT_042017.nc | 26-Oct-2024 08:14 | 429277 | ||
| 41001_TS_DEWT_042020.nc | 26-Oct-2024 08:15 | 450461 | ||
| 41001_TS_DEWT_042022.nc | 26-Oct-2024 08:15 | 449701 | ||
| 41001_TS_DEWT_042023.nc | 26-Oct-2024 08:15 | 429485 | ||
| 41001_TS_DEWT_051977.nc | 26-Oct-2024 08:15 | 449412 | ||
| 41001_TS_DEWT_051978.nc | 26-Oct-2024 08:15 | 429204 | ||
| 41001_TS_DEWT_051980.nc | 26-Oct-2024 08:15 | 448513 | ||
| 41001_TS_DEWT_051981.nc | 26-Oct-2024 08:15 | 449472 | ||
| 41001_TS_DEWT_051982.nc | 26-Oct-2024 08:15 | 429482 | ||
| 41001_TS_DEWT_051983.nc | 26-Oct-2024 08:15 | 613658 | ||
| 41001_TS_DEWT_051984.nc | 26-Oct-2024 08:15 | 680593 | ||
| 41001_TS_DEWT_051985.nc | 26-Oct-2024 08:15 | 448759 | ||
| 41001_TS_DEWT_051986.nc | 26-Oct-2024 08:15 | 995684 | ||
| 41001_TS_DEWT_051987.nc | 26-Oct-2024 08:16 | 995502 | ||
| 41001_TS_DEWT_051989.nc | 26-Oct-2024 08:16 | 425963 | ||
| 41001_TS_DEWT_051990.nc | 26-Oct-2024 08:16 | 426282 | ||
| 41001_TS_DEWT_051991.nc | 26-Oct-2024 08:16 | 426122 | ||
| 41001_TS_DEWT_051992.nc | 26-Oct-2024 08:16 | 425834 | ||
| 41001_TS_DEWT_051993.nc | 26-Oct-2024 08:16 | 429592 | ||
| 41001_TS_DEWT_051994.nc | 26-Oct-2024 08:16 | 429593 | ||
| 41001_TS_DEWT_051995.nc | 26-Oct-2024 08:16 | 429578 | ||
| 41001_TS_DEWT_051996.nc | 26-Oct-2024 08:16 | 429595 | ||
| 41001_TS_DEWT_051997.nc | 26-Oct-2024 08:16 | 427345 | ||
| 41001_TS_DEWT_051998.nc | 26-Oct-2024 08:16 | 429607 | ||
| 41001_TS_DEWT_051999.nc | 26-Oct-2024 08:17 | 429569 | ||
| 41001_TS_DEWT_052001.nc | 26-Oct-2024 08:17 | 429609 | ||
| 41001_TS_DEWT_052002.nc | 26-Oct-2024 08:17 | 429600 | ||
| 41001_TS_DEWT_052003.nc | 26-Oct-2024 08:17 | 429605 | ||
| 41001_TS_DEWT_052004.nc | 26-Oct-2024 08:17 | 429615 | ||
| 41001_TS_DEWT_052006.nc | 26-Oct-2024 08:17 | 429586 | ||
| 41001_TS_DEWT_052007.nc | 26-Oct-2024 08:17 | 426325 | ||
| 41001_TS_DEWT_052008.nc | 26-Oct-2024 08:17 | 429614 | ||
| 41001_TS_DEWT_052010.nc | 26-Oct-2024 08:17 | 429604 | ||
| 41001_TS_DEWT_052011.nc | 26-Oct-2024 08:17 | 429601 | ||
| 41001_TS_DEWT_052012.nc | 26-Oct-2024 08:17 | 429607 | ||
| 41001_TS_DEWT_052013.nc | 26-Oct-2024 08:17 | 429600 | ||
| 41001_TS_DEWT_052016.nc | 26-Oct-2024 08:17 | 429608 | ||
| 41001_TS_DEWT_052017.nc | 26-Oct-2024 08:18 | 451257 | ||
| 41001_TS_DEWT_052019.nc | 26-Oct-2024 08:18 | 451159 | ||
| 41001_TS_DEWT_052020.nc | 26-Oct-2024 08:18 | 429824 | ||
| 41001_TS_DEWT_052022.nc | 26-Oct-2024 08:18 | 449716 | ||
| 41001_TS_DEWT_052023.nc | 26-Oct-2024 08:18 | 422106 | ||
| 41001_TS_DEWT_052025.nc | 19-Jan-2026 19:55 | 449754 | ||
| 41001_TS_DEWT_061976.nc | 26-Oct-2024 08:18 | 449735 | ||
| 41001_TS_DEWT_061977.nc | 26-Oct-2024 08:18 | 449336 | ||
| 41001_TS_DEWT_061978.nc | 26-Oct-2024 08:18 | 421913 | ||
| 41001_TS_DEWT_061980.nc | 26-Oct-2024 08:18 | 418794 | ||
| 41001_TS_DEWT_061982.nc | 26-Oct-2024 08:18 | 1113752 | ||
| 41001_TS_DEWT_061983.nc | 26-Oct-2024 08:18 | 1259615 | ||
| 41001_TS_DEWT_061984.nc | 26-Oct-2024 08:18 | 1267665 | ||
| 41001_TS_DEWT_061985.nc | 26-Oct-2024 08:18 | 1144093 | ||
| 41001_TS_DEWT_061986.nc | 26-Oct-2024 08:19 | 1143915 | ||
| 41001_TS_DEWT_061987.nc | 26-Oct-2024 08:19 | 660509 | ||
| 41001_TS_DEWT_061989.nc | 26-Oct-2024 08:19 | 425859 | ||
| 41001_TS_DEWT_061990.nc | 26-Oct-2024 08:19 | 423508 | ||
| 41001_TS_DEWT_061991.nc | 26-Oct-2024 08:19 | 425996 | ||
| 41001_TS_DEWT_061992.nc | 26-Oct-2024 08:19 | 425899 | ||
| 41001_TS_DEWT_061993.nc | 26-Oct-2024 08:19 | 420750 | ||
| 41001_TS_DEWT_061994.nc | 26-Oct-2024 08:19 | 429259 | ||
| 41001_TS_DEWT_061995.nc | 26-Oct-2024 08:19 | 429256 | ||
| 41001_TS_DEWT_061996.nc | 26-Oct-2024 08:19 | 429260 | ||
| 41001_TS_DEWT_061997.nc | 26-Oct-2024 08:19 | 429264 | ||
| 41001_TS_DEWT_061998.nc | 26-Oct-2024 08:19 | 426241 | ||
| 41001_TS_DEWT_061999.nc | 26-Oct-2024 08:19 | 429268 | ||
| 41001_TS_DEWT_062000.nc | 26-Oct-2024 08:19 | 429278 | ||
| 41001_TS_DEWT_062001.nc | 26-Oct-2024 08:19 | 429280 | ||
| 41001_TS_DEWT_062002.nc | 26-Oct-2024 08:20 | 429271 | ||
| 41001_TS_DEWT_062003.nc | 26-Oct-2024 08:20 | 429275 | ||
| 41001_TS_DEWT_062004.nc | 26-Oct-2024 08:20 | 429284 | ||
| 41001_TS_DEWT_062006.nc | 26-Oct-2024 08:20 | 429280 | ||
| 41001_TS_DEWT_062007.nc | 26-Oct-2024 08:20 | 429279 | ||
| 41001_TS_DEWT_062008.nc | 26-Oct-2024 08:20 | 429286 | ||
| 41001_TS_DEWT_062010.nc | 26-Oct-2024 08:20 | 429281 | ||
| 41001_TS_DEWT_062011.nc | 26-Oct-2024 08:20 | 429274 | ||
| 41001_TS_DEWT_062012.nc | 26-Oct-2024 08:20 | 428756 | ||
| 41001_TS_DEWT_062017.nc | 26-Oct-2024 08:20 | 429282 | ||
| 41001_TS_DEWT_062019.nc | 26-Oct-2024 08:20 | 429269 | ||
| 41001_TS_DEWT_062020.nc | 26-Oct-2024 08:20 | 448843 | ||
| 41001_TS_DEWT_062021.nc | 26-Oct-2024 08:20 | 449169 | ||
| 41001_TS_DEWT_062022.nc | 26-Oct-2024 08:21 | 429482 | ||
| 41001_TS_DEWT_062023.nc | 26-Oct-2024 08:21 | 450004 | ||
| 41001_TS_DEWT_062025.nc | 19-Jan-2026 19:55 | 426386 | ||
| 41001_TS_DEWT_071976.nc | 26-Oct-2024 08:21 | 449285 | ||
| 41001_TS_DEWT_071977.nc | 26-Oct-2024 08:21 | 448964 | ||
| 41001_TS_DEWT_071978.nc | 26-Oct-2024 08:21 | 425110 | ||
| 41001_TS_DEWT_071980.nc | 26-Oct-2024 08:21 | 1113612 | ||
| 41001_TS_DEWT_071983.nc | 26-Oct-2024 08:21 | 1029065 | ||
| 41001_TS_DEWT_071984.nc | 26-Oct-2024 08:21 | 1111863 | ||
| 41001_TS_DEWT_071985.nc | 26-Oct-2024 08:21 | 629620 | ||
| 41001_TS_DEWT_071986.nc | 26-Oct-2024 08:21 | 995613 | ||
| 41001_TS_DEWT_071989.nc | 26-Oct-2024 08:21 | 1077554 | ||
| 41001_TS_DEWT_071990.nc | 26-Oct-2024 08:21 | 1111266 | ||
| 41001_TS_DEWT_071991.nc | 26-Oct-2024 08:21 | 420198 | ||
| 41001_TS_DEWT_071992.nc | 26-Oct-2024 08:21 | 426239 | ||
| 41001_TS_DEWT_071993.nc | 26-Oct-2024 08:21 | 426173 | ||
| 41001_TS_DEWT_071994.nc | 26-Oct-2024 08:21 | 425628 | ||
| 41001_TS_DEWT_071995.nc | 26-Oct-2024 08:22 | 429589 | ||
| 41001_TS_DEWT_071996.nc | 26-Oct-2024 08:22 | 429591 | ||
| 41001_TS_DEWT_071997.nc | 26-Oct-2024 08:22 | 429594 | ||
| 41001_TS_DEWT_071998.nc | 26-Oct-2024 08:22 | 429588 | ||
| 41001_TS_DEWT_071999.nc | 26-Oct-2024 08:22 | 422569 | ||
| 41001_TS_DEWT_072000.nc | 26-Oct-2024 08:22 | 429601 | ||
| 41001_TS_DEWT_072001.nc | 26-Oct-2024 08:22 | 429602 | ||
| 41001_TS_DEWT_072002.nc | 26-Oct-2024 08:22 | 421043 | ||
| 41001_TS_DEWT_072003.nc | 26-Oct-2024 08:22 | 429600 | ||
| 41001_TS_DEWT_072004.nc | 26-Oct-2024 08:22 | 429601 | ||
| 41001_TS_DEWT_072006.nc | 26-Oct-2024 08:22 | 429609 | ||
| 41001_TS_DEWT_072007.nc | 26-Oct-2024 08:22 | 429602 | ||
| 41001_TS_DEWT_072010.nc | 26-Oct-2024 08:22 | 429601 | ||
| 41001_TS_DEWT_072011.nc | 26-Oct-2024 08:23 | 429612 | ||
| 41001_TS_DEWT_072012.nc | 26-Oct-2024 08:23 | 429613 | ||
| 41001_TS_DEWT_072015.nc | 26-Oct-2024 08:23 | 427002 | ||
| 41001_TS_DEWT_072017.nc | 26-Oct-2024 08:23 | 429607 | ||
| 41001_TS_DEWT_072019.nc | 26-Oct-2024 08:23 | 429613 | ||
| 41001_TS_DEWT_072020.nc | 26-Oct-2024 08:23 | 449334 | ||
| 41001_TS_DEWT_072021.nc | 26-Oct-2024 08:23 | 449513 | ||
| 41001_TS_DEWT_072022.nc | 26-Oct-2024 08:23 | 429822 | ||
| 41001_TS_DEWT_072023.nc | 26-Oct-2024 08:23 | 449766 | ||
| 41001_TS_DEWT_072025.nc | 19-Jan-2026 19:56 | 450358 | ||
| 41001_TS_DEWT_081976.nc | 26-Oct-2024 08:23 | 450213 | ||
| 41001_TS_DEWT_081977.nc | 26-Oct-2024 08:23 | 449593 | ||
| 41001_TS_DEWT_081978.nc | 26-Oct-2024 08:23 | 478528 | ||
| 41001_TS_DEWT_081980.nc | 26-Oct-2024 08:23 | 1263699 | ||
| 41001_TS_DEWT_081982.nc | 26-Oct-2024 08:23 | 1268298 | ||
| 41001_TS_DEWT_081983.nc | 26-Oct-2024 08:23 | 1105608 | ||
| 41001_TS_DEWT_081984.nc | 26-Oct-2024 08:24 | 1264082 | ||
| 41001_TS_DEWT_081985.nc | 26-Oct-2024 08:24 | 1144031 | ||
| 41001_TS_DEWT_081986.nc | 26-Oct-2024 08:24 | 1262568 | ||
| 41001_TS_DEWT_081987.nc | 26-Oct-2024 08:24 | 1265145 | ||
| 41001_TS_DEWT_081988.nc | 26-Oct-2024 08:24 | 421025 | ||
| 41001_TS_DEWT_081989.nc | 26-Oct-2024 08:24 | 426205 | ||
| 41001_TS_DEWT_081990.nc | 26-Oct-2024 08:24 | 426139 | ||
| 41001_TS_DEWT_081991.nc | 26-Oct-2024 08:24 | 425368 | ||
| 41001_TS_DEWT_081992.nc | 26-Oct-2024 08:24 | 427694 | ||
| 41001_TS_DEWT_081993.nc | 26-Oct-2024 08:24 | 429596 | ||
| 41001_TS_DEWT_081994.nc | 26-Oct-2024 08:24 | 429594 | ||
| 41001_TS_DEWT_081995.nc | 26-Oct-2024 08:24 | 429589 | ||
| 41001_TS_DEWT_081996.nc | 26-Oct-2024 08:24 | 429592 | ||
| 41001_TS_DEWT_081997.nc | 26-Oct-2024 08:24 | 422289 | ||
| 41001_TS_DEWT_081998.nc | 26-Oct-2024 08:24 | 426874 | ||
| 41001_TS_DEWT_081999.nc | 26-Oct-2024 08:25 | 429606 | ||
| 41001_TS_DEWT_082000.nc | 26-Oct-2024 08:25 | 429607 | ||
| 41001_TS_DEWT_082001.nc | 26-Oct-2024 08:25 | 429585 | ||
| 41001_TS_DEWT_082002.nc | 26-Oct-2024 08:25 | 425758 | ||
| 41001_TS_DEWT_082003.nc | 26-Oct-2024 08:25 | 429611 | ||
| 41001_TS_DEWT_082004.nc | 26-Oct-2024 08:25 | 422131 | ||
| 41001_TS_DEWT_082005.nc | 26-Oct-2024 08:25 | 429601 | ||
| 41001_TS_DEWT_082006.nc | 26-Oct-2024 08:25 | 429608 | ||
| 41001_TS_DEWT_082007.nc | 26-Oct-2024 08:25 | 429604 | ||
| 41001_TS_DEWT_082010.nc | 26-Oct-2024 08:25 | 429601 | ||
| 41001_TS_DEWT_082011.nc | 26-Oct-2024 08:25 | 429612 | ||
| 41001_TS_DEWT_082012.nc | 26-Oct-2024 08:25 | 429606 | ||
| 41001_TS_DEWT_082015.nc | 26-Oct-2024 08:26 | 429603 | ||
| 41001_TS_DEWT_082017.nc | 26-Oct-2024 08:26 | 429608 | ||
| 41001_TS_DEWT_082019.nc | 26-Oct-2024 08:26 | 449554 | ||
| 41001_TS_DEWT_082020.nc | 26-Oct-2024 08:26 | 451430 | ||
| 41001_TS_DEWT_082021.nc | 26-Oct-2024 08:26 | 448605 | ||
| 41001_TS_DEWT_082022.nc | 26-Oct-2024 08:26 | 429826 | ||
| 41001_TS_DEWT_082023.nc | 26-Oct-2024 08:26 | 451248 | ||
| 41001_TS_DEWT_082024.nc | 09-Jan-2025 11:48 | 450169 | ||
| 41001_TS_DEWT_082025.nc | 19-Jan-2026 19:57 | 450109 | ||
| 41001_TS_DEWT_091976.nc | 26-Oct-2024 08:26 | 449850 | ||
| 41001_TS_DEWT_091977.nc | 26-Oct-2024 08:26 | 1265622 | ||
| 41001_TS_DEWT_091978.nc | 26-Oct-2024 08:26 | 937621 | ||
| 41001_TS_DEWT_091979.nc | 26-Oct-2024 08:26 | 1265787 | ||
| 41001_TS_DEWT_091980.nc | 26-Oct-2024 08:26 | 1267438 | ||
| 41001_TS_DEWT_091982.nc | 26-Oct-2024 08:27 | 1265228 | ||
| 41001_TS_DEWT_091983.nc | 26-Oct-2024 08:27 | 1144086 | ||
| 41001_TS_DEWT_091984.nc | 26-Oct-2024 08:27 | 1265629 | ||
| 41001_TS_DEWT_091985.nc | 26-Oct-2024 08:27 | 1360877 | ||
| 41001_TS_DEWT_091986.nc | 26-Oct-2024 08:27 | 1266626 | ||
| 41001_TS_DEWT_091987.nc | 26-Oct-2024 08:27 | 424870 | ||
| 41001_TS_DEWT_091988.nc | 26-Oct-2024 08:27 | 424010 | ||
| 41001_TS_DEWT_091989.nc | 26-Oct-2024 08:27 | 425974 | ||
| 41001_TS_DEWT_091990.nc | 26-Oct-2024 08:27 | 420000 | ||
| 41001_TS_DEWT_091991.nc | 26-Oct-2024 08:27 | 425250 | ||
| 41001_TS_DEWT_091992.nc | 26-Oct-2024 08:27 | 429266 | ||
| 41001_TS_DEWT_091993.nc | 26-Oct-2024 08:27 | 429261 | ||
| 41001_TS_DEWT_091995.nc | 26-Oct-2024 08:27 | 426609 | ||
| 41001_TS_DEWT_091996.nc | 26-Oct-2024 08:27 | 429264 | ||
| 41001_TS_DEWT_091997.nc | 26-Oct-2024 08:27 | 429254 | ||
| 41001_TS_DEWT_091998.nc | 26-Oct-2024 08:27 | 428767 | ||
| 41001_TS_DEWT_091999.nc | 26-Oct-2024 08:27 | 429283 | ||
| 41001_TS_DEWT_092000.nc | 26-Oct-2024 08:28 | 429153 | ||
| 41001_TS_DEWT_092001.nc | 26-Oct-2024 08:28 | 429276 | ||
| 41001_TS_DEWT_092002.nc | 26-Oct-2024 08:28 | 425830 | ||
| 41001_TS_DEWT_092003.nc | 26-Oct-2024 08:28 | 429271 | ||
| 41001_TS_DEWT_092004.nc | 26-Oct-2024 08:28 | 429273 | ||
| 41001_TS_DEWT_092005.nc | 26-Oct-2024 08:28 | 429266 | ||
| 41001_TS_DEWT_092006.nc | 26-Oct-2024 08:28 | 429276 | ||
| 41001_TS_DEWT_092007.nc | 26-Oct-2024 08:28 | 429277 | ||
| 41001_TS_DEWT_092010.nc | 26-Oct-2024 08:28 | 425656 | ||
| 41001_TS_DEWT_092011.nc | 26-Oct-2024 08:28 | 429271 | ||
| 41001_TS_DEWT_092012.nc | 26-Oct-2024 08:28 | 429283 | ||
| 41001_TS_DEWT_092015.nc | 26-Oct-2024 08:28 | 429281 | ||
| 41001_TS_DEWT_092019.nc | 26-Oct-2024 08:28 | 437970 | ||
| 41001_TS_DEWT_092020.nc | 26-Oct-2024 08:28 | 449259 | ||
| 41001_TS_DEWT_092021.nc | 26-Oct-2024 08:28 | 450141 | ||
| 41001_TS_DEWT_092022.nc | 26-Oct-2024 08:28 | 447843 | ||
| 41001_TS_DEWT_092023.nc | 26-Oct-2024 08:28 | 424230 | ||
| 41001_TS_DEWT_092024.nc | 10-Jan-2025 05:14 | 419402 | ||
| 41001_TS_DEWT_092025.nc | 19-Jan-2026 19:57 | 449149 | ||
| 41001_TS_DEWT_101976.nc | 26-Oct-2024 08:29 | 448747 | ||
| 41001_TS_DEWT_101978.nc | 26-Oct-2024 08:29 | 435847 | ||
| 41001_TS_DEWT_101979.nc | 26-Oct-2024 08:29 | 1119867 | ||
| 41001_TS_DEWT_101980.nc | 26-Oct-2024 08:29 | 1018241 | ||
| 41001_TS_DEWT_101982.nc | 26-Oct-2024 08:29 | 1111495 | ||
| 41001_TS_DEWT_101983.nc | 26-Oct-2024 08:29 | 645937 | ||
| 41001_TS_DEWT_101984.nc | 26-Oct-2024 08:29 | 995671 | ||
| 41001_TS_DEWT_101985.nc | 26-Oct-2024 08:29 | 1113976 | ||
| 41001_TS_DEWT_101986.nc | 26-Oct-2024 08:29 | 1830216 | ||
| 41001_TS_DEWT_101987.nc | 26-Oct-2024 08:29 | 1110024 | ||
| 41001_TS_DEWT_101988.nc | 26-Oct-2024 08:29 | 426253 | ||
| 41001_TS_DEWT_101989.nc | 26-Oct-2024 08:29 | 426341 | ||
| 41001_TS_DEWT_101990.nc | 26-Oct-2024 08:29 | 423201 | ||
| 41001_TS_DEWT_101991.nc | 26-Oct-2024 08:29 | 425592 | ||
| 41001_TS_DEWT_101992.nc | 26-Oct-2024 08:29 | 429595 | ||
| 41001_TS_DEWT_101993.nc | 26-Oct-2024 08:29 | 429598 | ||
| 41001_TS_DEWT_101994.nc | 26-Oct-2024 08:29 | 420316 | ||
| 41001_TS_DEWT_101995.nc | 26-Oct-2024 08:30 | 429560 | ||
| 41001_TS_DEWT_101996.nc | 26-Oct-2024 08:30 | 429596 | ||
| 41001_TS_DEWT_101997.nc | 26-Oct-2024 08:30 | 429606 | ||
| 41001_TS_DEWT_101998.nc | 26-Oct-2024 08:30 | 429607 | ||
| 41001_TS_DEWT_101999.nc | 26-Oct-2024 08:30 | 429614 | ||
| 41001_TS_DEWT_102000.nc | 26-Oct-2024 08:30 | 429601 | ||
| 41001_TS_DEWT_102001.nc | 26-Oct-2024 08:30 | 422053 | ||
| 41001_TS_DEWT_102002.nc | 26-Oct-2024 08:30 | 429607 | ||
| 41001_TS_DEWT_102003.nc | 26-Oct-2024 08:30 | 429601 | ||
| 41001_TS_DEWT_102004.nc | 26-Oct-2024 08:30 | 423019 | ||
| 41001_TS_DEWT_102005.nc | 26-Oct-2024 08:30 | 429610 | ||
| 41001_TS_DEWT_102006.nc | 26-Oct-2024 08:30 | 429600 | ||
| 41001_TS_DEWT_102010.nc | 26-Oct-2024 08:30 | 429296 | ||
| 41001_TS_DEWT_102011.nc | 26-Oct-2024 08:30 | 429605 | ||
| 41001_TS_DEWT_102012.nc | 26-Oct-2024 08:30 | 429611 | ||
| 41001_TS_DEWT_102015.nc | 26-Oct-2024 08:30 | 429601 | ||
| 41001_TS_DEWT_102019.nc | 26-Oct-2024 08:31 | 429612 | ||
| 41001_TS_DEWT_102020.nc | 26-Oct-2024 08:31 | 451248 | ||
| 41001_TS_DEWT_102022.nc | 26-Oct-2024 08:31 | 449481 | ||
| 41001_TS_DEWT_102023.nc | 26-Oct-2024 08:31 | 450389 | ||
| 41001_TS_DEWT_102025.nc | 19-Jan-2026 19:58 | 451534 | ||
| 41001_TS_DEWT_111976.nc | 26-Oct-2024 08:31 | 434436 | ||
| 41001_TS_DEWT_111978.nc | 26-Oct-2024 08:31 | 450699 | ||
| 41001_TS_DEWT_111979.nc | 26-Oct-2024 08:31 | 430917 | ||
| 41001_TS_DEWT_111980.nc | 26-Oct-2024 08:31 | 429822 | ||
| 41001_TS_DEWT_111981.nc | 26-Oct-2024 08:31 | 1263556 | ||
| 41001_TS_DEWT_111982.nc | 26-Oct-2024 08:31 | 1144074 | ||
| 41001_TS_DEWT_111983.nc | 26-Oct-2024 08:31 | 1266743 | ||
| 41001_TS_DEWT_111984.nc | 26-Oct-2024 08:31 | 1144148 | ||
| 41001_TS_DEWT_111985.nc | 26-Oct-2024 08:31 | 1263815 | ||
| 41001_TS_DEWT_111986.nc | 26-Oct-2024 08:31 | 1025347 | ||
| 41001_TS_DEWT_111987.nc | 26-Oct-2024 08:31 | 425934 | ||
| 41001_TS_DEWT_111988.nc | 26-Oct-2024 08:32 | 426134 | ||
| 41001_TS_DEWT_111989.nc | 26-Oct-2024 08:32 | 421351 | ||
| 41001_TS_DEWT_111990.nc | 26-Oct-2024 08:32 | 424512 | ||
| 41001_TS_DEWT_111991.nc | 26-Oct-2024 08:32 | 423603 | ||
| 41001_TS_DEWT_111992.nc | 26-Oct-2024 08:32 | 428927 | ||
| 41001_TS_DEWT_111993.nc | 26-Oct-2024 08:32 | 429257 | ||
| 41001_TS_DEWT_111994.nc | 26-Oct-2024 08:32 | 429266 | ||
| 41001_TS_DEWT_111995.nc | 26-Oct-2024 08:32 | 429259 | ||
| 41001_TS_DEWT_111996.nc | 26-Oct-2024 08:32 | 429263 | ||
| 41001_TS_DEWT_111997.nc | 26-Oct-2024 08:32 | 429281 | ||
| 41001_TS_DEWT_111998.nc | 26-Oct-2024 08:32 | 429275 | ||
| 41001_TS_DEWT_111999.nc | 26-Oct-2024 08:32 | 429275 | ||
| 41001_TS_DEWT_112000.nc | 26-Oct-2024 08:32 | 429282 | ||
| 41001_TS_DEWT_112001.nc | 26-Oct-2024 08:32 | 429280 | ||
| 41001_TS_DEWT_112002.nc | 26-Oct-2024 08:32 | 427815 | ||
| 41001_TS_DEWT_112003.nc | 26-Oct-2024 08:32 | 429267 | ||
| 41001_TS_DEWT_112004.nc | 26-Oct-2024 08:33 | 429277 | ||
| 41001_TS_DEWT_112005.nc | 26-Oct-2024 08:33 | 429259 | ||
| 41001_TS_DEWT_112006.nc | 26-Oct-2024 08:33 | 429283 | ||
| 41001_TS_DEWT_112010.nc | 26-Oct-2024 08:33 | 429276 | ||
| 41001_TS_DEWT_112011.nc | 26-Oct-2024 08:33 | 429271 | ||
| 41001_TS_DEWT_112012.nc | 26-Oct-2024 08:33 | 429276 | ||
| 41001_TS_DEWT_112015.nc | 26-Oct-2024 08:33 | 429280 | ||
| 41001_TS_DEWT_112019.nc | 26-Oct-2024 08:33 | 429277 | ||
| 41001_TS_DEWT_112020.nc | 26-Oct-2024 08:33 | 448652 | ||
| 41001_TS_DEWT_112022.nc | 26-Oct-2024 08:33 | 448663 | ||
| 41001_TS_DEWT_112023.nc | 26-Oct-2024 08:33 | 450114 | ||
| 41001_TS_DEWT_121976.nc | 26-Oct-2024 08:33 | 429482 | ||
| 41001_TS_DEWT_121978.nc | 26-Oct-2024 08:33 | 441804 | ||
| 41001_TS_DEWT_121979.nc | 26-Oct-2024 08:33 | 449161 | ||
| 41001_TS_DEWT_121980.nc | 26-Oct-2024 08:33 | 444188 | ||
| 41001_TS_DEWT_121981.nc | 26-Oct-2024 08:33 | 429479 | ||
| 41001_TS_DEWT_121982.nc | 26-Oct-2024 08:34 | 1113907 | ||
| 41001_TS_DEWT_121983.nc | 26-Oct-2024 08:34 | 597604 | ||
| 41001_TS_DEWT_121984.nc | 26-Oct-2024 08:34 | 1108996 | ||
| 41001_TS_DEWT_121985.nc | 26-Oct-2024 08:34 | 995749 | ||
| 41001_TS_DEWT_121986.nc | 26-Oct-2024 08:34 | 1115774 | ||
| 41001_TS_DEWT_121987.nc | 26-Oct-2024 08:34 | 426407 | ||
| 41001_TS_DEWT_121988.nc | 26-Oct-2024 08:34 | 426032 | ||
| 41001_TS_DEWT_121989.nc | 26-Oct-2024 08:34 | 425378 | ||
| 41001_TS_DEWT_121990.nc | 26-Oct-2024 08:34 | 425100 | ||
| 41001_TS_DEWT_121991.nc | 26-Oct-2024 08:34 | 429493 | ||
| 41001_TS_DEWT_121993.nc | 26-Oct-2024 08:34 | 419773 | ||
| 41001_TS_DEWT_121994.nc | 26-Oct-2024 08:34 | 428122 | ||
| 41001_TS_DEWT_121995.nc | 26-Oct-2024 08:34 | 429579 | ||
| 41001_TS_DEWT_121996.nc | 26-Oct-2024 08:34 | 429595 | ||
| 41001_TS_DEWT_121997.nc | 26-Oct-2024 08:34 | 429597 | ||
| 41001_TS_DEWT_121998.nc | 26-Oct-2024 08:35 | 429602 | ||
| 41001_TS_DEWT_121999.nc | 26-Oct-2024 08:35 | 429611 | ||
| 41001_TS_DEWT_122000.nc | 26-Oct-2024 08:35 | 424316 | ||
| 41001_TS_DEWT_122001.nc | 26-Oct-2024 08:35 | 429601 | ||
| 41001_TS_DEWT_122002.nc | 26-Oct-2024 08:35 | 429607 | ||
| 41001_TS_DEWT_122003.nc | 26-Oct-2024 08:35 | 429602 | ||
| 41001_TS_DEWT_122004.nc | 26-Oct-2024 08:35 | 429607 | ||
| 41001_TS_DEWT_122005.nc | 26-Oct-2024 08:35 | 429391 | ||
| 41001_TS_DEWT_122009.nc | 26-Oct-2024 08:35 | 429599 | ||
| 41001_TS_DEWT_122010.nc | 26-Oct-2024 08:35 | 429608 | ||
| 41001_TS_DEWT_122011.nc | 26-Oct-2024 08:35 | 429611 | ||
| 41001_TS_DEWT_122012.nc | 26-Oct-2024 08:35 | 424328 | ||
| 41001_TS_DEWT_122015.nc | 26-Oct-2024 08:35 | 429606 | ||
| 41001_TS_DEWT_122020.nc | 26-Oct-2024 08:35 | 429607 | ||
| 41001_TS_DEWT_122022.nc | 26-Oct-2024 08:35 | 435799 | ||
| 41001_TS_DEWT_122023.nc | 28-Dec-2024 00:07 | 451738 | ||